Zurück zum Katalog

FENGYUN 1C DEB

AktivSSO
NORAD 30677·DEBRIS·🇨🇳 China

Gestartet May 10, 1999 von Taiyuan Satellite Launch Center

Loading…

Nächste Überflüge (nächste 24 Stunden)

TLE

AktuellSource: Space-Track

Epoche: Sep 12, 2026, 01:56 UTC

1 30677U 99025AQK 26255.08110689  .00002077  00000-0  65843-3 0  9996
2 30677  98.2343 294.6130 0066309 101.7796 288.7825 14.39775711 19009

Verfolge FENGYUN 1C DEB in Echtzeit mit AllMySat

Download on the App Store